N0LSD-13 Weather Reports


Display with metric or nautical units.
time (UTC)temp
F
wind
direction
speed
MPH
gust
MPH
rain 1hr
in
rain 24hr
in
rain mn
in
humidity
%
barometer
mb
20260507120006 40 313 1.0 2.0 0.00 0.03 0.00 98 992.8
20260507115004 40 299 0.0 1.0 0.00 0.03 0.00 99 993.1
20260507114005 40 286 0.0 1.0 0.00 0.03 0.00 99 993.1
20260507113004 41 286 0.0 0.0 0.00 0.03 0.00 99 993.3
20260507112006 41 285 0.0 1.0 0.00 0.04 0.00 99 993.0
20260507111004 40 291 0.0 0.0 0.00 0.05 0.00 99 992.9
20260507110004 40 292 0.0 0.0 0.00 0.05 0.00 99 992.6
20260507105006 40 292 0.0 0.0 0.00 0.05 0.00 99 992.6
20260507104004 40 292 0.0 0.0 0.00 0.06 0.00 99 992.2
20260507103004 40 291 0.0 0.0 0.00 0.06 0.00 99 992.2
20260507102006 40 288 0.0 0.0 0.00 0.06 0.00 99 992.1
20260507101004 39 288 0.0 0.0 0.00 0.07 0.00 99 992.0
20260507100004 39 288 0.0 0.0 0.00 0.07 0.00 99 992.2
20260507094004 38 288 0.0 0.0 0.00 0.08 0.00 99 992.2
20260507093004 38 288 0.0 0.0 0.00 0.09 0.00 99 992.1
20260507092004 38 288 0.0 0.0 0.00 0.10 0.00 99 992.1
20260507091007 38 288 0.0 0.0 0.00 0.10 0.00 99 992.0
20260507090005 39 288 0.0 0.0 0.00 0.11 0.00 99 992.3
20260507085007 38 288 0.0 0.0 0.00 0.12 0.00 99 992.3
20260507083005 38 288 0.0 0.0 0.00 0.14 0.00 99 992.3
20260507082004 38 288 0.0 0.0 0.00 0.15 0.00 99 992.1
20260507080004 39 288 0.0 0.0 0.00 0.17 0.00 99 992.2
20260507075007 39 288 0.0 0.0 0.00 0.18 0.00 98 992.2
20260507074004 39 288 0.0 0.0 0.00 0.19 0.00 98 992.1
20260507073005 39 288 0.0 0.0 0.00 0.20 0.00 98 992.1
20260507072004 39 288 0.0 0.0 0.00 0.21 0.00 98 992.0
20260507070008 40 288 0.0 0.0 0.00 0.22 0.00 98 992.0
20260507065004 40 288 0.0 0.0 0.00 0.23 0.00 97 992.1
20260507064004 40 288 0.0 0.0 0.00 0.23 0.00 97 992.4
20260507063004 41 288 0.0 0.0 0.00 0.24 0.00 97 992.5
20260507062004 41 288 0.0 0.0 0.00 0.25 0.00 97 992.5
20260507061004 42 288 0.0 0.0 0.00 0.25 0.00 97 992.7
20260507060005 42 288 0.0 0.0 0.00 0.26 0.00 96 992.4
20260507055005 43 288 0.0 0.0 0.00 0.26 0.00 96 992.6
20260507054005 43 288 0.0 0.0 0.00 0.27 0.00 96 992.8
20260507053005 43 289 0.0 0.0 0.00 0.27 0.00 96 992.7
20260507051004 43 289 0.0 0.0 0.00 0.29 0.00 95 993.0
20260507045004 44 278 0.0 3.0 0.00 0.34 0.00 95 993.0
20260507044005 44 281 0.0 2.0 0.00 0.36 0.00 94 993.2
20260507043004 44 282 0.0 2.0 0.00 0.37 0.00 94 993.1
20260507042004 44 279 1.0 2.0 0.00 0.39 0.00 94 993.0
20260507041004 44 253 1.0 3.0 0.00 0.40 0.00 94 993.1
20260507040005 44 276 1.0 1.0 0.00 0.40 0.00 93 993.0
20260507035004 44 280 0.0 2.0 0.00 0.40 0.40 93 992.9
20260507034004 44 284 0.0 3.0 0.00 0.40 0.40 93 993.0
20260507033005 44 266 1.0 2.0 0.00 0.40 0.40 93 992.9
20260507032005 44 267 0.0 2.0 0.00 0.40 0.40 93 992.7
20260507031004 44 278 0.0 0.0 0.00 0.41 0.40 92 993.0
20260507024004 44 273 1.0 1.0 0.00 0.44 0.40 92 993.0
20260507023004 44 281 0.0 0.0 0.00 0.45 0.40 92 992.9
20260507021004 44 274 1.0 2.0 0.00 0.47 0.40 91 993.1
20260507020004 44 278 1.0 2.0 0.00 0.47 0.40 92 993.2
20260507015007 44 282 0.0 2.0 0.00 0.48 0.40 92 993.3
20260507014004 44 280 1.0 2.0 0.00 0.49 0.40 92 993.6
20260507013004 44 281 0.0 1.0 0.00 0.49 0.40 92 993.2
20260507012004 43 287 0.0 0.0 0.00 0.49 0.40 92 993.2
20260507010004 44 287 0.0 0.0 0.00 0.51 0.40 92 992.8
20260507005004 44 287 0.0 0.0 0.00 0.52 0.40 92 992.9
20260507004004 44 287 0.0 0.0 0.00 0.54 0.40 92 992.7
20260507003004 44 293 0.0 0.0 0.00 0.56 0.40 92 992.6
20260507002004 44 293 0.0 0.0 0.00 0.59 0.40 92 992.4
20260507001004 44 293 0.0 0.0 0.00 0.62 0.40 92 992.3
20260507000004 44 293 0.0 0.0 0.00 0.65 0.40 92 992.4
20260506235004 44 292 0.0 1.0 0.00 0.69 0.40 92 992.3
20260506234004 44 307 0.0 0.0 0.00 0.73 0.40 92 992.2
20260506233004 44 307 0.0 2.0 0.00 0.75 0.40 91 992.1
20260506232004 44 288 0.0 2.0 0.00 0.76 0.40 91 992.2
20260506230004 44 284 1.0 1.0 0.00 0.78 0.40 93 992.0
20260506223005 43 293 1.0 5.0 0.00 0.82 0.40 95 991.5
20260506222004 43 286 1.0 5.0 0.00 0.83 0.40 96 991.4
20260506221004 43 290 1.0 3.0 0.00 0.85 0.40 96 991.3
20260506220004 43 291 1.0 5.0 0.00 0.87 0.40 97 991.1
20260506215006 43 289 2.0 6.0 0.00 0.88 0.40 97 991.3
20260506211005 43 270 2.0 7.0 0.00 0.98 0.40 97 990.7
20260506210004 44 289 2.0 8.0 0.00 1.00 0.40 96 990.6
20260506205004 44 257 2.0 12.0 0.00 1.02 0.40 95 990.7
20260506204004 46 242 5.0 13.0 0.00 1.03 0.40 93 990.2
20260506203004 48 237 6.0 13.0 0.00 1.03 0.40 90 990.2
20260506202005 51 233 6.0 12.0 0.00 1.03 0.40 84 989.9
20260506201004 51 166 3.0 13.0 0.00 1.03 0.40 82 989.9
20260506200004 51 216 5.0 10.0 0.00 1.03 0.40 82 989.9
20260506195004 51 213 3.0 6.0 0.00 1.03 0.40 83 989.5
20260506194004 52 244 3.0 9.0 0.00 1.03 0.40 82 989.7
20260506193004 52 238 3.0 6.0 0.00 1.03 0.40 83 989.6
20260506192005 50 259 1.0 5.0 0.00 1.03 0.40 86 989.7
20260506191006 51 265 1.0 7.0 0.00 1.03 0.40 86 989.7
20260506190005 51 256 1.0 3.0 0.00 1.03 0.40 84 989.7
20260506185005 51 263 1.0 2.0 0.00 1.03 0.40 82 989.6
20260506184005 52 289 0.0 1.0 0.00 1.03 0.40 82 989.6
20260506183006 53 290 0.0 2.0 0.00 1.03 0.40 82 989.3
20260506182004 52 286 0.0 0.0 0.00 1.03 0.40 84 989.4
20260506175004 50 293 0.0 2.0 0.00 1.03 0.40 85 989.6
20260506173004 50 285 0.0 1.0 0.00 1.03 0.40 90 989.6
20260506172007 49 284 0.0 1.0 0.00 1.03 0.40 92 989.8
20260506171004 48 287 0.0 1.0 0.00 1.03 0.40 94 989.9
20260506170005 48 323 0.0 1.0 0.00 1.03 0.40 96 989.8
20260506165004 48 314 1.0 2.0 0.00 1.03 0.40 97 989.5
20260506164004 47 321 0.0 2.0 0.00 1.03 0.40 97 989.7
20260506163004 48 302 0.0 3.0 0.00 1.03 0.40 98 989.4
20260506162004 47 318 0.0 2.0 0.00 1.03 0.40 98 989.3
20260506160005 47 316 0.0 1.0 0.00 1.03 0.40 99 989.7
20260506154006 46 316 0.0 1.0 0.00 1.03 0.40 99 989.6
20260506153004 46 316 0.0 2.0 0.00 1.03 0.40 99 989.4
20260506152004 47 317 1.0 2.0 0.00 1.03 0.40 99 989.3
20260506151004 46 326 1.0 3.0 0.00 1.03 0.40 99 989.3
20260506150004 46 319 1.0 2.0 0.00 1.03 0.40 99 989.4
20260506145005 46 294 0.0 2.0 0.01 1.03 0.40 99 989.3
20260506144005 46 297 1.0 2.0 0.01 1.03 0.40 99 989.1
20260506143005 46 315 1.0 2.0 0.01 1.03 0.40 99 989.1
20260506142004 46 321 1.0 2.0 0.01 1.03 0.40 99 989.0
20260506141004 46 309 0.0 2.0 0.01 1.03 0.40 99 989.2
20260506140007 45 306 1.0 3.0 0.01 1.03 0.40 99 989.0
20260506135004 45 313 1.0 2.0 0.00 1.02 0.39 99 988.8
20260506134007 45 312 1.0 5.0 0.00 1.02 0.39 99 988.9
20260506133004 45 321 1.0 2.0 0.01 1.02 0.39 99 988.8
20260506131004 45 321 0.0 2.0 0.02 1.02 0.39 99 988.5
20260506130004 45 319 1.0 2.0 0.02 1.02 0.39 99 988.5
20260506125004 44 341 1.0 2.0 0.02 1.02 0.39 99 988.6
20260506124005 45 312 0.0 5.0 0.02 1.02 0.39 99 988.5
20260506123004 45 315 1.0 3.0 0.01 1.01 0.38 99 988.4